Regional Weather Roundup
Issued by NWS Upton, NY

Current Version | Previous Version | Graphics & Text | Print | Product List | Glossary Off
Versions: 1 2 3 4 5 6 7 8 9 10 11 12 13 14 15 16 17 18 19 20 21 22 23 24 25 26

000
ASUS41 KOKX 111108
RWROKX

REGIONAL WEATHER ROUNDUP
NATIONAL WEATHER SERVICE NEW YORK NY
600 AM EST MON DEC 11 2017

NOTE: "FAIR" INDICATES FEW OR NO CLOUDS BELOW 12,000 FEET WITH NO
SIGNIFICANT WEATHER AND/OR OBSTRUCTIONS TO VISIBILITY.

NYZ071-072-176-178-NJZ106-104-111200-
NEW YORK CITY METRO AREA

CITY           SKY/WX    TMP DP  RH WIND       PRES   REMARKS
Central Park   CLOUDY    34  23  64 VRB5G16   30.02R WCI  30
Bronx Bot Gard   N/A     34  23  64 S17       30.00F WCI  23
Bronx Lehman C   N/A     34  25  69 W7          N/A  WCI  28
LaGuardia APRT CLOUDY    35  23  61 SW10      30.01R WCI  27
Queens College   N/A     34  25  69 W8          N/A  WCI  27
Kennedy INTL   FLURRIES  33  28  81 W15       30.04R WCI  23
Breezy Point     N/A     32 N/A N/A SW9G15      N/A  WCI  24
Brooklyn Coll    N/A     34  28  80 SW8         N/A  WCI  27
Staten Island    N/A     32  28  86 SW6         N/A  WCI  26
Newark/Liberty CLOUDY    33  25  72 SW10      30.02R WCI  25
Teterboro      CLOUDY    34  23  64 SW8       30.00R WCI  27
$$

NYZ177-179-078>081-111200-
LONG ISLAND NEW YORK

CITY           SKY/WX    TMP DP  RH WIND       PRES   REMARKS
Jones Beach      N/A     34 N/A N/A W15G21      N/A  WCI  24
Wantagh          N/A     34  32  93 SW12        N/A  WCI  25
Matinecock PT    N/A     36 N/A N/A SW20        N/A  WCI  25
Farmingdale    LGT SNOW  32  29  88 SW10      30.02R FOG     WCI  24
MacArthur/ISP  CLOUDY    34  24  67 W17       30.00R WCI  23
Shirley        CLOUDY    35  24  64 SW9       30.01R WCI  28
Mt Sinai Harb    N/A    N/A N/A N/A SW7G13      N/A
Westhampton    CLOUDY    34  22  61 W7        30.01S WCI  28
East Hampton   CLOUDY    34  22  61 SW7G16    29.99S WCI  28
Southold         N/A     36  23  60 SW8         N/A  WCI  29
Montauk          N/A     39  24  55 W10G22    30.00R WCI  32
$$

NYZ052-065-067-111200-
HUDSON VALLEY

CITY           SKY/WX    TMP DP  RH WIND       PRES   REMARKS
White Plains   CLOUDY    32  22  66 W6        29.97R WCI  26
Larchmont Harb   N/A     34 N/A N/A SW14        N/A  WCI  24
Croton On Huds   N/A     34 N/A N/A SW8         N/A  WCI  27
Somers           N/A     32  23  69 SW3         N/A
Brewster         N/A     32  23  69 S2          N/A
Newburgh       CLOUDY    30  25  80 SW9       29.97R WCI  22
Montgomery     CLOUDY    31  22  69 SW6       29.96R WCI  25
Otisville        N/A     30  23  74 SW3         N/A
Warwick          N/A     32  23  69 W7          N/A  WCI  26
Suffern          N/A     32  23  69 SW3         N/A
Poughkeepsie   CLOUDY    32  21  64 SW6       29.97R WCI  26
Albany         CLOUDY    30  21  69 S6        29.93R WCI  24
$$

NJZ001-105-106-008-010-013-015-019>022-104-111200-
NEW JERSEY

CITY           SKY/WX    TMP DP  RH WIND       PRES   REMARKS
Newark/Liberty CLOUDY    33  25  72 SW10      30.02R WCI  25
Teterboro      CLOUDY    34  23  64 SW8       30.00R WCI  27
Caldwell       CLOUDY    32  22  66 SW3       30.01R
Somerville     CLOUDY    31  26  82 CALM      30.00R
Linden         PTSUNNY   32  27  80 CALM      30.03R
Perth Amboy      N/A    N/A N/A N/A SW6         N/A
Sussex         CLOUDY    30  24  78 SW6       29.97R WCI  24
Andover        NOT AVBL
Trenton        MOCLDY    32  27  81 S5        30.01S WCI  27
Millville      CLOUDY    34  30  85 CALM      30.04S
Atlantic City  CLOUDY    36  30  79 W9        30.05R WCI  29
Wrightstown    CLOUDY    31  29  94 S6        30.00S WCI  25
Toms River     MIX PCPN  32  30  92 CALM      30.04S
Belmar         CLOUDY    30  28  92 CALM      30.04S
$$

PAZ047>061-062-071-111200-
EASTERN PENNSYLVANIA

CITY           SKY/WX    TMP DP  RH WIND       PRES   REMARKS
Philadelphia   CLOUDY    34  29  82 SW6       30.04R WCI  29
Allentown      CLOUDY    31  22  69 SW3       30.00R
Scranton       CLOUDY    30  21  69 SW5       29.95R WCI  25
$$

CTZ002-004>006-009-010-012-RIZ004-006-007-MAZ004-011-015-111200-
SOUTHERN NEW ENGLAND
 IN CT

CITY           SKY/WX    TMP DP  RH WIND       PRES   REMARKS
Bradley INTL   CLOUDY    31  23  72 SW9       29.96R WCI  23
Hartford       CLOUDY    32  23  69 S5        29.98R WCI  27
Danbury        CLOUDY    32  21  64 SW3       29.97R
Wtrbury/Oxford CLOUDY    29  22  75 SW5       29.95R WCI  24
Norwalk Harbor   N/A     34 N/A N/A SW18        N/A  WCI  23
Bridgeport     FLURRIES  35  25  66 SW16      29.99R WCI  25
Meriden        CLOUDY    32  21  64 S3        29.98R
New Haven      CLOUDY    36  23  59 W14G21    29.99R WCI  27
Chester        FAIR      34  19  55 VRB5      29.96R WCI  30
Groton         CLOUDY    35  21  56 W7        29.98R WCI  29
Wilimantic     CLOUDY    33  22  63 S5        29.97R WCI  29

 IN RI

CITY           SKY/WX    TMP DP  RH WIND       PRES   REMARKS
Providence     CLOUDY    33  24  69 W5        29.97R WCI  29
Block Island     N/A    N/A N/A N/A MISG        N/A
Westerly       CLOUDY    35  22  58 W3        29.98R
 IN MA

CITY           SKY/WX    TMP DP  RH WIND       PRES   REMARKS
Boston         CLOUDY    32  23  69 SW10      29.95R WCI  24
Worcester      CLOUDY    26  20  77 W12       29.89S WCI  16
Westfield      CLOUDY    31  22  69 SW9       29.94R WCI  23
Provincetown   CLOUDY    36  23  59 W15       29.96R WCI  27
Nantucket      CLOUDY    38  29  70 NW7       29.97R WCI  33
$$

ANZ330-335-338-340-345-350-353-355-111200-
COASTAL MARINE OBSERVATIONS


STATION/POSITION TIME  SKY/WX   TEMP    WIND        PRES    VSBY  WAVE
                                AIR SEA DIR/SP/G                  HT/PER
                 (UTC)          (F)     (DEG/KT/KT) (MB)    (MI)  (FT/S)
NY HARB ENTRANCE 0950            36 52  270/ 19/ 23 1016.0          3/ 9
20 S FIRE ISLAND 0950            38 53  290/ 21/ 25 1015.8          6/ 6
GREAT SOUTH BAY  1030            35 45  260/ 16/ 21   N/A
HUDSON CANYON    1050            45 56  260/ 17/ 21 1015.7          5/ 6
KINGS POINT      1024            36 46  300/  9/ 13 1016.8
EXECUTION ROCKS  1045            37     220/ 14/ 19   N/A
WESTERN LI SOUND 0949            36     280/ 17/ 23   N/A           2/ 3
CENTRAL LI SOUND 1015            39     260/ 17/ 23   N/A           4
ROBBINS REEF     1024            34     220/ 12/ 16 1016.8
$$


>>>>>>>>>>>>>>>>>>>>>>>>>>>> KEY <<<<<<<<<<<<<<<<<<<<<<<<<<<
>                                                          <
>     SKY/WX - Sky Condition/Present Weather               <
>     TMP    - Temperature in Fahrenheit                   <
>     DP     - Dew Point in Fahrenheit                     <
>     RH     - Relative Humidity in Percent                <
>     WIND   - Direction (from) and Speed in MPH           <
>     PRES   - Mean Sea Level Pressure (inches of Hg)      <
>     WCI    - Wind Chill Index                            <
>     VSB    - VISIBILITY IN MILES                         <
>     HX     - HEAT INDEX                                  <
>     TC     - TEMPERATURE IN CELSIUS                      <
>     VRB    - VARIABLE WIND DIRECTION                     <
>                                                          <
>>>>>>>>>>>>>>>>>>>>>>>>>>>> KEY <<<<<<<<<<<<<<<<<<<<<<<<<<<




USA.gov is the U.S. government's official web portal to all federal, state and local government web resources and services.